TimeCST,TemperatureF,Dew PointF,Humidity,Sea Level PressureIn,VisibilityMPH,Wind Direction,Wind SpeedMPH,Gust SpeedMPH,PrecipitationIn,Events,Conditions,WindDirDegrees,DateUTC
12:15 AM,69.6,67.1,92,29.79,7.0,South,6.9,-,N/A,,Mostly Cloudy,190,2013-12-04 06:15:00
12:35 AM,69.6,67.1,92,29.80,7.0,South,8.1,-,N/A,,Mostly Cloudy,190,2013-12-04 06:35:00
12:55 AM,69.6,67.1,92,29.80,7.0,South,5.8,-,N/A,,Overcast,190,2013-12-04 06:55:00
1:15 AM,69.4,67.1,92,29.80,7.0,South,3.5,-,N/A,,Overcast,180,2013-12-04 07:15:00
1:35 AM,69.3,67.3,93,29.80,7.0,South,6.9,-,N/A,,Overcast,180,2013-12-04 07:35:00
1:55 AM,69.1,67.3,94,29.80,7.0,SSE,3.5,-,N/A,,Overcast,160,2013-12-04 07:55:00
2:15 AM,68.7,67.3,95,29.81,5.0,South,4.6,-,N/A,,Overcast,170,2013-12-04 08:15:00
2:35 AM,68.9,67.5,95,29.80,5.0,South,3.5,-,N/A,,Overcast,170,2013-12-04 08:35:00
2:55 AM,69.1,67.5,95,29.80,5.0,SSE,4.6,-,N/A,,Overcast,160,2013-12-04 08:55:00
3:15 AM,68.9,67.5,95,29.80,5.0,SSE,4.6,-,N/A,,Overcast,160,2013-12-04 09:15:00
3:35 AM,68.9,67.5,95,29.80,5.0,SSE,4.6,-,N/A,,Overcast,160,2013-12-04 09:35:00
3:55 AM,68.9,67.6,96,29.81,5.0,South,4.6,-,N/A,,Overcast,170,2013-12-04 09:55:00
4:15 AM,68.5,67.3,96,29.80,4.0,SSE,4.6,-,N/A,,Overcast,160,2013-12-04 10:15:00
4:35 AM,68.7,67.5,96,29.80,4.0,SSE,3.5,-,N/A,,Overcast,160,2013-12-04 10:35:00
4:55 AM,68.9,67.6,96,29.80,4.0,South,3.5,-,N/A,,Overcast,170,2013-12-04 10:55:00
5:15 AM,68.9,67.6,96,29.81,4.0,South,4.6,-,N/A,,Overcast,170,2013-12-04 11:15:00
5:35 AM,68.9,67.6,96,29.81,4.0,SSE,3.5,-,N/A,,Overcast,160,2013-12-04 11:35:00
5:55 AM,68.9,67.8,96,29.82,4.0,SSE,3.5,-,N/A,,Overcast,160,2013-12-04 11:55:00
6:15 AM,68.9,67.8,96,29.82,3.0,SSE,3.5,-,N/A,,Overcast,150,2013-12-04 12:15:00
6:35 AM,68.9,67.8,96,29.83,3.0,SSE,3.5,-,N/A,,Overcast,150,2013-12-04 12:35:00
6:55 AM,68.9,67.8,96,29.84,2.5,SSE,4.6,-,N/A,,Overcast,160,2013-12-04 12:55:00
7:15 AM,68.9,68.0,97,29.84,3.0,South,4.6,-,N/A,,Overcast,170,2013-12-04 13:15:00
7:35 AM,69.4,68.0,95,29.86,4.0,South,4.6,-,N/A,,Overcast,170,2013-12-04 13:35:00
7:55 AM,70.0,68.4,95,29.86,5.0,South,4.6,-,N/A,,Mostly Cloudy,170,2013-12-04 13:55:00
8:15 AM,70.9,68.9,93,29.88,5.0,South,5.8,-,N/A,,Overcast,170,2013-12-04 14:15:00
8:35 AM,71.4,69.1,92,29.89,7.0,South,4.6,-,N/A,,Overcast,180,2013-12-04 14:35:00
8:55 AM,72.7,69.3,89,29.89,7.0,South,5.8,-,N/A,,Overcast,170,2013-12-04 14:55:00
9:15 AM,72.9,69.1,88,29.90,10.0,SSE,4.6,-,N/A,,Overcast,160,2013-12-04 15:15:00
9:35 AM,72.7,69.3,89,29.90,10.0,SSW,6.9,-,N/A,Rain,Rain,210,2013-12-04 15:35:00
9:55 AM,73.4,70.2,90,29.90,10.0,South,4.6,-,N/A,,Overcast,190,2013-12-04 15:55:00
10:15 AM,74.8,69.8,84,29.90,10.0,South,5.8,-,N/A,,Overcast,170,2013-12-04 16:15:00
10:35 AM,75.9,69.8,81,29.90,10.0,SSE,8.1,-,N/A,,Overcast,160,2013-12-04 16:35:00
10:55 AM,76.1,69.4,80,29.89,10.0,SSW,9.2,16.1,N/A,,Overcast,200,2013-12-04 16:55:00
11:15 AM,77.0,69.3,77,29.89,10.0,SSW,12.7,18.4,N/A,,Scattered Clouds,200,2013-12-04 17:15:00
11:35 AM,78.6,68.7,72,29.88,10.0,South,13.8,20.7,N/A,,Scattered Clouds,190,2013-12-04 17:35:00
11:55 AM,79.3,68.0,68,29.87,10.0,South,15.0,21.9,N/A,,Scattered Clouds,190,2013-12-04 17:55:00
12:15 PM,80.2,68.0,66,29.85,10.0,South,11.5,21.9,N/A,,Scattered Clouds,180,2013-12-04 18:15:00
12:35 PM,80.6,67.1,63,29.84,10.0,SSW,12.7,20.7,N/A,,Mostly Cloudy,200,2013-12-04 18:35:00
12:55 PM,81.1,67.3,63,29.84,10.0,South,17.3,-,N/A,,Mostly Cloudy,190,2013-12-04 18:55:00
1:15 PM,80.8,66.7,62,29.83,10.0,South,13.8,20.7,N/A,,Mostly Cloudy,180,2013-12-04 19:15:00
1:35 PM,80.4,67.1,64,29.82,10.0,South,15.0,-,N/A,,Scattered Clouds,190,2013-12-04 19:35:00
1:55 PM,79.9,66.9,64,29.82,10.0,South,13.8,20.7,N/A,,Mostly Cloudy,180,2013-12-04 19:55:00
2:15 PM,80.1,67.1,64,29.82,7.0,South,10.4,18.4,N/A,,Scattered Clouds,180,2013-12-04 20:15:00
2:35 PM,79.7,67.5,66,29.81,7.0,South,10.4,21.9,N/A,,Scattered Clouds,170,2013-12-04 20:35:00
2:55 PM,79.7,67.3,66,29.82,10.0,South,13.8,19.6,N/A,,Mostly Cloudy,190,2013-12-04 20:55:00
3:15 PM,78.8,67.5,68,29.82,10.0,South,11.5,19.6,N/A,,Mostly Cloudy,190,2013-12-04 21:15:00
3:35 PM,78.3,67.6,70,29.81,10.0,South,10.4,19.6,N/A,,Mostly Cloudy,180,2013-12-04 21:35:00
3:55 PM,78.4,67.6,69,29.82,10.0,South,6.9,20.7,N/A,,Mostly Cloudy,170,2013-12-04 21:55:00
4:15 PM,77.4,67.5,71,29.82,10.0,South,10.4,19.6,N/A,,Scattered Clouds,170,2013-12-04 22:15:00
4:35 PM,76.5,67.5,74,29.82,10.0,SSE,4.6,16.1,N/A,,Scattered Clouds,160,2013-12-04 22:35:00
4:55 PM,74.8,67.8,79,29.82,10.0,SSE,6.9,-,N/A,,Scattered Clouds,160,2013-12-04 22:55:00
5:15 PM,74.5,67.3,78,29.83,10.0,SSE,5.8,-,N/A,,Scattered Clouds,160,2013-12-04 23:15:00
5:35 PM,73.8,67.6,81,29.83,10.0,South,8.1,-,N/A,,Clear,170,2013-12-04 23:35:00
5:55 PM,73.4,68.0,83,29.82,10.0,South,8.1,-,N/A,,Clear,170,2013-12-04 23:55:00
6:15 PM,72.7,68.2,86,29.84,10.0,South,5.8,-,N/A,,Clear,170,2013-12-05 00:15:00
6:35 PM,72.5,68.2,86,29.84,10.0,South,8.1,-,N/A,,Scattered Clouds,180,2013-12-05 00:35:00
6:55 PM,72.5,68.5,87,29.85,10.0,South,3.5,-,N/A,,Scattered Clouds,170,2013-12-05 00:55:00
7:15 PM,71.4,68.2,89,29.86,10.0,Calm,Calm,-,N/A,,Clear,0,2013-12-05 01:15:00
7:35 PM,70.7,68.2,92,29.87,10.0,SSE,3.5,-,N/A,,Scattered Clouds,160,2013-12-05 01:35:00
7:55 PM,70.7,68.4,92,29.87,10.0,Calm,Calm,-,N/A,,Scattered Clouds,0,2013-12-05 01:55:00
8:15 PM,70.3,68.4,93,29.88,10.0,South,3.5,-,N/A,,Mostly Cloudy,170,2013-12-05 02:15:00
8:35 PM,69.8,68.2,95,29.88,10.0,Calm,Calm,-,N/A,,Mostly Cloudy,0,2013-12-05 02:35:00
8:55 PM,70.3,68.9,95,29.89,10.0,SSE,3.5,-,N/A,,Mostly Cloudy,150,2013-12-05 02:55:00
9:15 PM,70.7,68.9,94,29.89,10.0,SSE,3.5,-,N/A,,Overcast,160,2013-12-05 03:15:00
9:35 PM,70.7,69.1,95,29.89,10.0,SE,3.5,-,N/A,,Overcast,140,2013-12-05 03:35:00
9:55 PM,70.7,69.3,95,29.89,10.0,SE,3.5,-,N/A,,Overcast,140,2013-12-05 03:55:00
10:15 PM,70.7,69.3,95,29.89,10.0,SE,4.6,-,N/A,,Overcast,140,2013-12-05 04:15:00
10:35 PM,70.7,69.1,95,29.90,10.0,SE,3.5,-,N/A,,Overcast,140,2013-12-05 04:35:00
10:55 PM,71.6,69.8,94,29.91,10.0,SSE,4.6,-,N/A,,Overcast,160,2013-12-05 04:55:00
11:15 PM,71.8,69.8,93,29.91,10.0,SSE,4.6,-,N/A,,Overcast,150,2013-12-05 05:15:00
11:35 PM,71.2,69.8,95,29.91,10.0,SSE,4.6,-,N/A,,Overcast,160,2013-12-05 05:35:00
11:55 PM,71.6,69.8,94,29.90,10.0,SSE,5.8,-,N/A,,Overcast,150,2013-12-05 05:55:00